User: anonymous   Login
Location: Unspecified
(0.0000°N, 0.0000°E)
Time: 22:24:45
(UTC+00:00)
Language:

ARGOS - Orbit

View from above orbital plane
View from above orbital plane
View from above satellite
View from above satellite

Ground track
Ground track

The orbit data is extracted from the following two-line orbital elements,

1 25634U 99008A   19082.17358297 -.00000007  00000-0  16481-4 0  9990
2 25634  98.5257 134.4150 0010946 142.9550 217.2384 14.19349018 39810
Epoch (UTC): 23 March 2019 04:09:57
Eccentricity: 0.0010946
inclination: 98.5257°
perigee height: 819 km
apogee height: 835 km
right ascension of ascending node: 134.4150°
argument of perigee: 142.9550°
revolutions per day: 14.19349018
mean anomaly at epoch: 217.2384°
orbit number at epoch: 3981

The dashed part of the orbit path shows where the satellite is in the earth's shadow,  

DLR